Location: La Estación
(39.9833°N, 3.9500°W)
Time: 15:37:20
(UTC+00:00)

Meteor 2-10 Rocket - Pass Details

Date: 14 June 2025
Orbit: 732 x 882 km, 81.2° (Epoch: 19 July)

Event Time Altitude Azimuth Distance (km) Brightness Sun altitude
Rises 20:43:45 0° 356° (N) 3,463 7.6 -9.7°
Reaches altitude 10° 20:46:21 10° 3° (N) 2,505 6.7 -10.0°
Maximum altitude 20:51:48 46° 76° (ENE) 1,124 4.1 -10.8°
Enters shadow 20:56:10 15° 145° (SE) 2,099 5.1 -11.4°
